Regional Weather Roundup
Issued by NWS Charleston, SC

Home | Current Version | Previous Version | Text Only | Print | Product List | Glossary On
Versions: 1 2 3 4 5 6 7 8 9 10 11 12 13 14 15 16 17 18 19 20 21 22 23 24 25 26 27 28 29 30 31 32 33 34 35 36 37 38 39 40 41 42 43 44 45 46 47 48 49 50
000
ASUS42 KCHS 042311
RWRCHS

REGIONAL WEATHER ROUNDUP
NATIONAL WEATHER SERVICE CHARLESTON SC
600 PM EST WED MAR 04 2015

NOTE: "FAIR" INDICATES FEW OR NO CLOUDS BELOW 12,000 FEET WITH NO
SIGNIFICANT WEATHER AND/OR OBSTRUCTIONS TO VISIBILITY.

NOT ALL STATIONS ARE QUALITY CONTROLLED BY THE NATIONAL
WEATHER SERVICE. USE DATA WITH CAUTION...ESPECIALLY
DEWPOINT OBSERVATIONS.

SCZ027-030-031-034>040-042>050-050000-
...SOUTHEAST SOUTH CAROLINA...

CITY           SKY/WX    TMP DP  RH WIND       PRES   REMARKS
N CHARLESTON   NOT AVBL
WATERFRONT PRK NOT AVBL
MOUNT PLEASANT NOT AVBL
PINOPOLIS      NOT AVBL
MONCKS CORNER  FAIR      75  63  64 S12       29.97S
SUMMERVILLE    NOT AVBL
BEAUFORT MCAS  MOCLDY    70  63  78 S14G24    29.99S
BEAUFORT ARPT  FAIR      66  63  88 S5        30.00R
HILTON HEAD IS CLEAR     66  63  88 S10G18    30.01S
WALTERBORO     NOT AVBL
ALLENDALE      NOT AVBL

...SOUTHERN MIDLANDS AND PEE DEE...

CITY           SKY/WX    TMP DP  RH WIND       PRES   REMARKS
GEORGETOWN     NOT AVBL
KINGSTREE      NOT AVBL
ORANGEBURG     NOT AVBL
BARNWELL       NOT AVBL
AIKEN          FAIR      75  57  53 SW13G20   29.98F
MANNING        NOT AVBL
COLUMBIA       NOT AVBL
SUMTER         PTCLDY    77  56  49 SW16G22   29.92S
FLORENCE       NOT AVBL
MYRTLE BEACH   PTCLDY    66  61  82 S16       29.99R
N MYRTLE BEACH NOT AVBL

$$

GAZ063-065-086>088-099>101-113>116-118-119-134>141-150-050000-
...SOUTHEAST GEORGIA...

CITY           SKY/WX    TMP DP  RH WIND       PRES   REMARKS
SAVANNAH ARPT  NOT AVBL
HUNTER AAF     CLEAR     73  65  76 S13G18    29.98R
FORT STEWART   PTCLDY    80  58  46 S8        29.97R
STATESBORO     NOT AVBL
SYLVANIA       NOT AVBL
CLAXTON        NOT AVBL

...CSRA...CENTRAL AND FAR SOUTHEAST GEORGIA...

CITY           SKY/WX    TMP DP  RH WIND       PRES   REMARKS
THOMSON        NOT AVBL
AUGUSTA-BUSH   NOT AVBL
AUGUSTA-DANIEL NOT AVBL
SWAINSBORO     NOT AVBL
VIDALIA        NOT AVBL
EASTMAN        NOT AVBL
HAZLEHURST     NOT AVBL
ALMA           NOT AVBL
WAYCROSS       NOT AVBL
JESUP          NOT AVBL
BAXLEY         NOT AVBL
BRUNSWICK      NOT AVBL
SAINT SIMONS   NOT AVBL

$$

SCZ027-028-034-036>038-045-046-048>050-GAZ119-141-050000-
...LAKE AND SUPPLEMENTAL COASTAL OBSERVATIONS...

STATION/POSITION TIME  TEMP    WIND        PRES    WAVE   SWELL
                       AIR SEA DIR/SP/G            HT/PER HT/PER/DIR
                 (UTC) (F)     (DEG/KT/KT) (MB)    (FT/S) (FT/S/D)
UPR LAKE MARION  NOT AVBL
WINYAH BAY       2145   70     210/ 15     1014.0
LAKE MURRAY      2200   73     240/ 15/ 18 1012.9F
ACE BASIN NERRS  NOT AVBL
FORT PULASKI     2200   66 51  200/  8/ 14 1016.6F
SAPELO ISLAND    2200   71     160/ 15     1016.0F

$$

ANZ835-935-AMZ111-154-330-350-352-354-370-450-454-472-050000-
...C-MAN AND BUOY OBSERVATIONS...

STATION/POSITION TIME  TEMP    WIND        PRES    WAVE   SWELL
                       AIR SEA DIR/SP/G            HT/PER HT/PER/DIR
                 (UTC) (F)     (DEG/KT/KT) (MB)    (FT/S) (FT/S/D)
BUOY 41004       2150   70 69  200/ 19/ 23 1015.8    5/ 6   3/ 9
BUOY 41008       2250   61 55  170/ 14/ 16 1016.2F   3/ 9   2/100/ 9
FOLLY BEACH CMAN NOT AVBL
CAPERS NEARSHORE 2200   57     200/ 14/ 17   N/A
FRIPP NEARSHORE  2200   58     190/ 16/ 17 1015.5F


STATION/POSITION TIME  TEMP    WIND        PRES    WAVE   SWELL
                       AIR SEA DIR/SP/G            HT/PER HT/PER/DIR
                 (UTC) (F)     (DEG/KT/KT) (MB)    (FT/S) (FT/S/D)
5E ST. MARYS GA  2221      55                N/A     3/ 8
FRYING PAN BUOY  2150   67 62  210/ 16/ 17 1016.8    5/ 6   3/130/ 9
BUOY 41025       NOT AVBL
CAPE LOOKOUT NC  NOT AVBL
BUOY 41002       2250   73 74  210/ 17/ 21 1020.7    6/10   3/120/10
BUOY 41010       2220   74 75  170/ 12/ 14 1020.4S
ST AUGUSTINE FL  NOT AVBL


$$


USA.gov is the U.S. government's official web portal to all federal, state and local government web resources and services.